When you browse on this site, cookies collect data to enhance your experience and personalize the content and advertising you see.
Visit our Privacy Policy to learn more. By continuing to use the site, you agree to this use of cookies and data.
  • En España
  • Lista de países
  • Para 7 días
  • Temperatura del agua
  • El tiempo en el mapa
  • Informadores
  • user-avatar
    Iniciar sesión

    Tiempo cada hora Troickoe-Bachurino

    Hoy, 15 Diciembre, Domingo

    Tiempo Temperatura Precipitaciones Viento Presión Humedad
    00:00 -1°C° 0 mm 5 mps 745 mmHg 93%
    01:00 0°C° 0 mm 5 mps 745 mmHg 94%
    02:00 0°C° 0 mm 5 mps 745 mmHg 95%
    03:00 0°C° 0 mm 5 mps 745 mmHg 95%
    04:00 0°C° 0 mm 5 mps 744 mmHg 95%
    05:00 0°C° 0 mm 5 mps 744 mmHg 95%
    06:00 0°C° 0.1 mm 5 mps 744 mmHg 95%
    07:00 -1°C° 0.1 mm 6 mps 744 mmHg 95%
    08:00 -1°C° 0.1 mm 6 mps 744 mmHg 95%
    09:00 +1°C° 0.1 mm 6 mps 743 mmHg 95%
    10:00 +1°C° 0.1 mm 6 mps 743 mmHg 95%
    11:00 +2°C° 0.1 mm 7 mps 742 mmHg 95%
    12:00 +2°C° 0.2 mm 7 mps 742 mmHg 95%
    13:00 +2°C° 0.2 mm 7 mps 742 mmHg 95%
    14:00 +2°C° 0.2 mm 7 mps 742 mmHg 94%
    15:00 +2°C° 0.6 mm 7 mps 741 mmHg 95%
    16:00 +3°C° 0.6 mm 6 mps 741 mmHg 95%
    17:00 +3°C° 0.6 mm 6 mps 741 mmHg 95%
    18:00 +2°C° 1.2 mm 5 mps 742 mmHg 95%
    19:00 +3°C° 1.2 mm 4 mps 742 mmHg 96%
    20:00 +3°C° 1.2 mm 3 mps 742 mmHg 97%
    21:00 +2°C° 0.1 mm 3 mps 743 mmHg 94%
    22:00 +1°C° 0.1 mm 3 mps 743 mmHg 92%
    23:00 +1°C° 0.1 mm 3 mps 744 mmHg 90%

    Mañana, 16 Diciembre, Lunes

    Tiempo Temperatura Precipitaciones Viento Presión Humedad
    00:00 0°C° 0 mm 3 mps 744 mmHg 89%
    01:00 0°C° 0 mm 3 mps 745 mmHg 88%
    02:00 -1°C° 0 mm 3 mps 745 mmHg 87%
    03:00 -1°C° 0 mm 3 mps 745 mmHg 88%
    04:00 0°C° 0 mm 3 mps 746 mmHg 89%
    05:00 -1°C° 0 mm 4 mps 746 mmHg 90%
    06:00 -1°C° 0 mm 4 mps 746 mmHg 92%
    07:00 -1°C° 0 mm 4 mps 746 mmHg 93%
    08:00 -1°C° 0 mm 4 mps 746 mmHg 94%
    09:00 -1°C° 0 mm 5 mps 746 mmHg 94%
    10:00 0°C° 0 mm 5 mps 746 mmHg 94%
    11:00 0°C° 0 mm 5 mps 746 mmHg 94%
    12:00 +1°C° 0 mm 5 mps 745 mmHg 92%
    13:00 +1°C° 0 mm 5 mps 745 mmHg 91%
    14:00 +1°C° 0 mm 5 mps 745 mmHg 89%
    15:00 +1°C° 0 mm 5 mps 746 mmHg 89%
    16:00 +1°C° 0 mm 5 mps 746 mmHg 88%
    17:00 +1°C° 0 mm 5 mps 746 mmHg 87%
    18:00 +1°C° 0 mm 5 mps 747 mmHg 85%
    19:00 +1°C° 0 mm 5 mps 747 mmHg 83%
    20:00 +1°C° 0 mm 5 mps 748 mmHg 81%
    21:00 0°C° 0 mm 5 mps 748 mmHg 83%
    22:00 0°C° 0 mm 5 mps 748 mmHg 85%
    23:00 -1°C° 0 mm 5 mps 749 mmHg 88%

    Pasado mañana, 17 Diciembre, Martes

    Tiempo Temperatura Precipitaciones Viento Presión Humedad
    00:00 -1°C° 0 mm 5 mps 749 mmHg 89%
    01:00 -2°C° 0 mm 4 mps 749 mmHg 90%
    02:00 -2°C° 0 mm 4 mps 750 mmHg 91%
    03:00 -2°C° 0 mm 4 mps 750 mmHg 92%
    04:00 -1°C° 0 mm 3 mps 750 mmHg 93%
    05:00 -1°C° 0 mm 3 mps 751 mmHg 94%
    06:00 -1°C° 0 mm 3 mps 751 mmHg 93%
    07:00 -1°C° 0 mm 3 mps 751 mmHg 92%
    08:00 -1°C° 0 mm 3 mps 751 mmHg 92%
    09:00 0°C° 0 mm 3 mps 751 mmHg 87%
    10:00 0°C° 0 mm 4 mps 751 mmHg 82%
    11:00 0°C° 0 mm 4 mps 751 mmHg 78%
    12:00 +1°C° 0 mm 5 mps 750 mmHg 78%
    13:00 +1°C° 0 mm 5 mps 749 mmHg 79%
    14:00 +1°C° 0 mm 5 mps 749 mmHg 79%
    15:00 +1°C° 0 mm 5 mps 749 mmHg 82%
    16:00 +1°C° 0 mm 5 mps 748 mmHg 85%
    17:00 +1°C° 0 mm 6 mps 748 mmHg 87%
    18:00 +1°C° 0 mm 5 mps 748 mmHg 89%
    19:00 +1°C° 0 mm 5 mps 748 mmHg 90%
    20:00 +1°C° 0 mm 5 mps 748 mmHg 92%
    21:00 +1°C° 0 mm 5 mps 748 mmHg 92%
    22:00 +1°C° 0 mm 5 mps 748 mmHg 92%
    23:00 0°C° 0 mm 5 mps 748 mmHg 92%

    18 Diciembre, Miércoles

    Tiempo Temperatura Precipitaciones Viento Presión Humedad
    00:00 0°C° 0 mm 4 mps 748 mmHg 93%
    01:00 0°C° 0 mm 4 mps 748 mmHg 94%
    02:00 +1°C° 0 mm 3 mps 748 mmHg 94%
    03:00 +1°C° 0 mm 3 mps 748 mmHg 95%
    04:00 +1°C° 0 mm 2 mps 748 mmHg 95%
    05:00 +1°C° 0 mm 2 mps 748 mmHg 96%
    06:00 +1°C° 0 mm 2 mps 748 mmHg 96%
    07:00 +1°C° 0 mm 2 mps 748 mmHg 96%
    08:00 +1°C° 0 mm 2 mps 748 mmHg 96%
    09:00 +2°C° 0 mm 2 mps 748 mmHg 95%
    10:00 +2°C° 0 mm 2 mps 748 mmHg 94%
    11:00 +3°C° 0 mm 2 mps 748 mmHg 93%
    12:00 +3°C° 0 mm 2 mps 748 mmHg 93%
    13:00 +2°C° 0 mm 2 mps 747 mmHg 94%
    14:00 +1°C° 0 mm 3 mps 747 mmHg 94%
    15:00 +1°C° 0 mm 3 mps 747 mmHg 94%
    16:00 +1°C° 0 mm 3 mps 747 mmHg 94%
    17:00 +1°C° 0 mm 3 mps 747 mmHg 94%
    18:00 0°C° 0 mm 3 mps 747 mmHg 94%
    19:00 0°C° 0 mm 3 mps 746 mmHg 94%
    20:00 0°C° 0 mm 3 mps 746 mmHg 94%
    21:00 0°C° 0 mm 3 mps 746 mmHg 94%
    22:00 0°C° 0 mm 3 mps 746 mmHg 94%
    23:00 0°C° 0 mm 3 mps 746 mmHg 94%

    19 Diciembre, Jueves

    Tiempo Temperatura Precipitaciones Viento Presión Humedad
    00:00 0°C° 0 mm 3 mps 746 mmHg 94%
    01:00 0°C° 0 mm 3 mps 745 mmHg 94%
    02:00 0°C° 0 mm 3 mps 745 mmHg 95%
    03:00 -1°C° 0 mm 4 mps 745 mmHg 95%
    04:00 -1°C° 0 mm 5 mps 744 mmHg 96%
    05:00 0°C° 0 mm 5 mps 744 mmHg 97%
    06:00 0°C° 0 mm 5 mps 744 mmHg 97%
    07:00 0°C° 0 mm 5 mps 744 mmHg 97%
    08:00 +1°C° 0 mm 6 mps 744 mmHg 97%
    09:00 +1°C° 0 mm 6 mps 744 mmHg 97%
    10:00 +1°C° 0 mm 5 mps 744 mmHg 97%
    11:00 +2°C° 0 mm 5 mps 745 mmHg 96%
    12:00 +1°C° 0 mm 5 mps 744 mmHg 96%
    13:00 +1°C° 0 mm 5 mps 744 mmHg 96%
    14:00 +1°C° 0 mm 4 mps 744 mmHg 96%
    15:00 +1°C° 0 mm 4 mps 744 mmHg 95%
    16:00 +1°C° 0 mm 4 mps 745 mmHg 93%
    17:00 +2°C° 0 mm 3 mps 745 mmHg 91%
    18:00 +1°C° 0 mm 3 mps 745 mmHg 91%
    19:00 +1°C° 0 mm 3 mps 745 mmHg 91%
    20:00 +1°C° 0 mm 3 mps 745 mmHg 91%
    21:00 +2°C° 0 mm 2 mps 745 mmHg 91%
    22:00 +1°C° 0 mm 2 mps 746 mmHg 91%
    23:00 +1°C° 0 mm 2 mps 746 mmHg 92%

    20 Diciembre, Viernes

    Tiempo Temperatura Precipitaciones Viento Presión Humedad
    00:00 -1°C° 0 mm 2 mps 746 mmHg 92%
    01:00 -1°C° 0 mm 2 mps 746 mmHg 92%
    02:00 -2°C° 0 mm 2 mps 746 mmHg 92%
    03:00 -2°C° 0 mm 2 mps 746 mmHg 93%
    04:00 -2°C° 0 mm 2 mps 746 mmHg 93%
    05:00 -2°C° 0 mm 2 mps 747 mmHg 94%
    06:00 -2°C° 0 mm 3 mps 747 mmHg 91%
    07:00 -2°C° 0 mm 3 mps 747 mmHg 88%
    08:00 -2°C° 0 mm 3 mps 747 mmHg 85%
    09:00 -2°C° 0 mm 3 mps 747 mmHg 83%
    10:00 -2°C° 0 mm 2 mps 748 mmHg 80%
    11:00 -2°C° 0 mm 2 mps 748 mmHg 78%
    12:00 -2°C° 0 mm 2 mps 748 mmHg 77%
    13:00 -1°C° 0 mm 2 mps 748 mmHg 76%
    14:00 +1°C° 0 mm 1 mps 748 mmHg 76%
    15:00 0°C° 0 mm 1 mps 748 mmHg 78%
    16:00 0°C° 0 mm 1 mps 748 mmHg 81%
    17:00 -1°C° 0 mm 1 mps 748 mmHg 84%
    18:00 -1°C° 0 mm 1 mps 748 mmHg 84%
    19:00 -1°C° 0 mm 1 mps 748 mmHg 85%
    20:00 -1°C° 0 mm 1 mps 748 mmHg 85%
    21:00 -2°C° 0 mm 0 mps 748 mmHg 86%
    22:00 -2°C° 0 mm 0 mps 748 mmHg 87%
    23:00 -2°C° 0 mm 0 mps 748 mmHg 87%
    Mostrar más